Regional Weather Roundup
Issued by NWS

Home | Current Version | Previous Version | Graphics & Text | Print | Product List | Glossary On
Versions: 1 2 3 4 5 6 7 8 9 10 11 12 13 14 15 16 17 18 19 20 21 22 23 24 25 26 27 28 29 30 31 32 33 34 35 36 37 38 39 40 41 42 43 44 45 46 47 48 49 50
652
ASUS43 KLSX 240010
RWRMO

WEATHER SUMMARY FOR MISSOURI
NATIONAL WEATHER SERVICE SPRINGFIELD MO
700 PM CDT THU MAR 23 2017

NOTE: "FAIR" INDICATES FEW OR NO CLOUDS BELOW 12,000 FEET WITH NO
       SIGNIFICANT WEATHER AND/OR OBSTRUCTIONS TO VISIBILITY.
       CURRENT SKY AND/OR WEATHER CONDITIONS ARE NOT AVAILABLE FOR
       CHILLICOTHE AND FARMINGTON.

MOZ001>031-035>038-043-044-053-054-240100-
...NORTHERN AND WESTERN MISSOURI...

CITY           SKY/WX    TMP DP  RH WIND       PRES   REMARKS
KANSAS CTY INT PTCLDY    76  46  34 S22G33    29.77R
6HR MIN TEMP:  70; 6HR MAX TEMP:  80;

KANSAS C DTWN  CLEAR     78  45  30 S25G31    29.78R
6HR MIN TEMP:  71; 6HR MAX TEMP:  81;

LEE`S SUMMIT   CLEAR     77  48  35 S17G24    29.80R
6HR MIN TEMP:  69; 6HR MAX TEMP:  79;

ST JOSEPH      CLEAR     76  53  44 S23       29.73F
6HR MIN TEMP:  68; 6HR MAX TEMP:  81;

CHILLICOTHE      N/A     76  48  37 S12G22    29.81R
6HR MIN TEMP:  62; 6HR MAX TEMP:  80;

KIRKSVILLE     CLEAR     62  40  44 SE16      29.85F
6HR MIN TEMP:  52; 6HR MAX TEMP:  65;


$$
MOZ066>068-077>081-088>096-101>105-240100-
...SOUTHWEST MISSOURI...

CITY           SKY/WX    TMP DP  RH WIND       PRES   REMARKS
SPRINGFIELD    CLEAR     75  41  29 S17G29    29.91F
6HR MIN TEMP:  68; 6HR MAX TEMP:  78;

JOPLIN         CLEAR     74  48  39 S21G30    29.86F
6HR MIN TEMP:  74; 6HR MAX TEMP:  79; 6HR PCP: TRACE;

BRANSON        PTCLDY    73  46  38 SE15G26   29.98S

$$
MOZ032>034-039>042-045>050-055>058-069>072-240100-
...CENTRAL MISSOURI...

CITY           SKY/WX    TMP DP  RH WIND       PRES   REMARKS
COLUMBIA       CLEAR     75  47  36 S23G33    29.89F
6HR MIN TEMP:  65; 6HR MAX TEMP:  79;

JEFFERSON CITY CLEAR     79  47  32 S13       29.90S
6HR MIN TEMP:  69; 6HR MAX TEMP:  81;

ROLLA          CLEAR     72  51  47 S16       29.95S
6HR MIN TEMP:  67; 6HR MAX TEMP:  77;

SEDALIA        CLEAR     76  47  35 S16G30    29.86F
6HR MIN TEMP:  74; 6HR MAX TEMP:  81;

WHITEMAN AFB   CLEAR     75  49  39 S16G26    29.82F
WARRENSBURG    CLEAR     73  46  38 S16       29.82S
OSAGE BEACH    CLEAR    N/A N/A N/A S15G25    29.92F

$$
MOZ051-052-059>065-240100-
...EAST CENTRAL MISSOURI...

CITY           SKY/WX    TMP DP  RH WIND       PRES   REMARKS
ST LOUIS INTL  PTCLDY    60  43  53 SE17      30.01F
6HR MIN TEMP:  45; 6HR MAX TEMP:  61;

SPIRIT OF STL  CLEAR     63  41  44 SE9       29.98F
6HR MIN TEMP:  44; 6HR MAX TEMP:  65;

ST CHARLES     CLEAR     58  44  60 SE15      29.99F
6HR MIN TEMP:  41; 6HR MAX TEMP:  60;


$$
MOZ072>076-082>087-097>100-106>115-240100-
...SOUTH CENTRAL AND SOUTHEAST MISSOURI...

CITY           SKY/WX    TMP DP  RH WIND       PRES   REMARKS
CAPE GIRARDEAU CLEAR     62  44  51 S8        30.11F
6HR MIN TEMP:  53; 6HR MAX TEMP:  65;

FARMINGTON     CLEAR     63  45  51 S13       30.06S
6HR MIN TEMP:  58; 6HR MAX TEMP:  70;

POPLAR BLUFF   CLEAR     65  51  60 SE6       30.09F
6HR MIN TEMP:  56; 6HR MAX TEMP:  68;

WEST PLAINS    CLEAR     69  50  50 SE15G21   30.04S
6HR MIN TEMP:  65; 6HR MAX TEMP:  74;


$$




USA.gov is the U.S. government's official web portal to all federal, state and local government web resources and services.